User: anonymous   Login
Location: Burland Observatory
(39.4088°N, 105.4217°W)
Time: 16:48:31
(UTC-07:00)
Language:

Courier 1B - Orbit

View from above orbital plane
View from above orbital plane
View from above satellite
View from above satellite

Ground track
Ground track

The orbit data is extracted from the following two-line orbital elements,

1    58U 60013A   19346.67778837  .00000095  00000-0  14765-4 0  9990
2    58  28.3296 327.2653 0164890 314.6717  44.0496 13.46319616913820
Epoch (UTC): 12 December 2019 16:16:00
Eccentricity: 0.0164890
inclination: 28.3296°
perigee height: 963 km
apogee height: 1209 km
right ascension of ascending node: 327.2653°
argument of perigee: 314.6717°
revolutions per day: 13.46319616
mean anomaly at epoch: 44.0496°
orbit number at epoch: 91382

The dashed part of the orbit path shows where the satellite is in the earth's shadow,  

DLR